Dewpoint
74 74 73 72 71 70 71 72 71 70 69 65 66 71 70 72 73 72 72 73 74 74 74 75 76 76 74 75 76 74 73 73 73 73 74 74 73 72 70 70 71 69
75 75 74 73 73 73 72 72 72 71 70 69 68 69 72 72 72 72 73 73 74 74 75 74 75 76 76 74 76 75 74 74 74 71 74 75 74 73 71 72 70 71
75 75 74 73 71 72 70 71 72 71 69 68 67 69 70 72 72 74 74 73 73 73 74 75 75 76 75 75 75 75 73 75 74 71 73 74 73 74 73 69 71 71
75 75 74 73 72 72 72 71 71 72 69 69 68 67 69 69 72 73 74 74 74 74 73 74 74 73 75 75 76 74 74 75 74 74 73 74 74 73 73 73 71 70
74 74 74 74 72 74 73 71 69 70 69 69 69 70 71 72 73 72 74 74 75 74 74 74 74 73 74 75 76 75 73 73 74 75 74 74 75 74 72 73 73 72
74 75 75 75 74 73 71 71 70 69 70 67 70 69 69 71 71 71 72 73 72 71 70 72 73 73 73 74 75 75 73 70 71 75 74 74 73 73 71 72 74 74
74 75 75 74 73 73 73 72 71 71 70 68 71 70 70 70 71 72 72 72 71 72 70 71 74 73 73 74 75 75 75 74 73 74 75 74 74 73 71 72 74 74
74 74 74 74 74 73 73 72 72 71 72 72 69 71 71 70 73 71 71 71 70 71 72 70 73 74 71 73 74 75 75 72 73 74 75 75 75 75 74 72 74 75
74 74 74 74 73 72 71 71 72 72 72 72 69 69 71 71 72 71 73 72 72 72 72 72 73 72 73 73 73 74 75 73 70 73 74 74 74 75 74 74 73 74
74 74 72 72 72 71 70 70 69 71 71 71 70 68 70 72 71 72 72 74 72 73 73 73 73 72 73 73 73 73 74 75 74 73 73 73 73 73 73 73 73 74
73 72 72 72 71 70 70 69 68 69 71 71 70 68 68 71 72 73 74 74 72 72 73 74 73 73 73 72 72 73 74 74 74 74 73 74 74 74 73 73 73 73
74 73 72 71 70 69 69 68 67 68 70 70 70 69 68 69 72 72 72 74 75 74 74 75 75 75 75 74 71 72 73 73 73 73 72 73 73 73 74 73 73 73
73 72 72 70 70 69 69 68 67 66 67 69 70 69 68 67 70 71 72 74 75 74 73 74 75 75 76 76 74 72 73 73 71 71 72 72 73 72 72 71 72 72
74 73 71 72 71 73 70 69 68 66 67 69 71 70 68 67 67 70 71 72 74 74 74 75 76 76 76 77 76 73 72 73 73 71 70 71 71 72 72 69 69 70
75 74 73 73 72 73 71 70 69 68 68 69 71 70 68 67 66 68 71 71 73 75 74 74 74 75 76 76 77 75 73 71 73 73 71 70 71 70 70 70 67 66
76 76 75 75 73 73 73 71 70 69 66 67 70 70 71 70 69 68 69 71 72 74 74 73 73 75 75 71 72 76 75 71 72 74 74 71 71 71 69 68 67 65
76 76 76 76 75 73 73 73 72 70 70 72 72 72 73 73 70 68 67 69 71 72 73 73 73 73 70 67 67 70 75 74 72 74 75 73 70 72 71 68 67 67
76 76 76 76 75 75 75 74 71 72 73 73 71 72 74 71 69 69 71 69 69 71 71 72 73 71 65 65 66 66 71 75 72 72 72 73 72 70 70 70 69 66
77 77 76 76 76 76 76 75 75 73 72 71 70 72 72 74 74 71 71 70 70 72 71 71 72 68 64 64 65 65 65 71 72 72 70 71 72 72 70 71 71 70
77 77 77 77 76 76 76 75 74 74 72 71 71 73 74 73 72 73 72 74 72 72 73 72 74 67 63 63 63 63 64 67 72 70 71 70 71 71 70 70 70 70
77 77 77 77 77 76 77 76 75 75 73 72 71 72 74 75 73 73 73 73 72 70 71 71 72 64 61 61 61 62 63 65 72 69 69 71 71 71 73 71 73 71
76 77 77 77 77 76 77 76 76 76 75 74 72 71 73 74 74 73 73 73 73 72 70 71 72 61 60 61 60 61 62 72 75 73 71 70 71 73 73 74 74 73
76 77 77 77 77 76 77 76 76 76 76 75 73 71 71 73 74 73 74 73 73 73 72 73 72 65 59 59 59 60 63 74 75 74 74 73 72 72 73 73 74 75
76 76 77 76 77 76 76 76 75 76 75 75 73 71 69 71 73 74 73 73 72 73 72 72 71 69 56 58 58 58 66 74 75 74 75 75 74 74 73 74 75 77
76 76 76 76 76 76 75 76 76 76 76 76 73 72 71 71 72 73 72 73 72 72 74 72 71 68 56 57 57 57 66 76 75 74 74 75 74 74 75 75 76 76
76 77 77 76 76 76 76 76 76 75 75 74 74 73 71 69 69 71 72 72 71 71 71 72 72 72 65 56 56 56 60 76 75 74 74 74 75 75 74 75 75 76